Regional Weather Roundup
Issued by NWS Cleveland, OH

Home | Current Version | Previous Version | Graphics & Text | Print | Product List | Glossary On
Versions: 1 2 3 4 5 6 7 8 9 10 11 12 13 14 15 16 17 18 19 20 21 22 23 24 25 26 27 28 29 30 31 32 33 34 35 36 37 38 39 40 41 42 43 44 45 46 47 48 49 50
000
ASUS41 KCLE 240612
RWRCLE
OHIO REGIONAL WEATHER ROUNDUP
NATIONAL WEATHER SERVICE WILMINGTON, OH
200 AM EDT FRI MAR 24 2017

NOTE: "FAIR" INDICATES FEW OR NO CLOUDS BELOW 12,000 FEET WITH NO
SIGNIFICANT WEATHER AND/OR OBSTRUCTIONS TO VISIBILITY.

OHZ001>008-015>018-024>027-034-035-043-044-240700-
   NORTHWEST OHIO

CITY           SKY/WX    TMP DP  RH WIND       PRES   REMARKS
DEFIANCE       CLOUDY    44  33  65 SE3       30.11F
FINDLAY        CLOUDY    45  36  70 SE7       30.13F
TOLEDO EXPRESS LGT RAIN  39  37  92 CALM      30.13F
TOLEDO EXEC    CLOUDY    40  37  89 SE8       30.14F
LIMA           MOCLDY    47  38  71 S10       30.12F
$$

OHZ009>014-019>023-028>033-038-089-240700-
   NORTHEAST OHIO

CITY           SKY/WX    TMP DP  RH WIND       PRES   REMARKS
CLE-HOPKINS    LGT RAIN  46  21  37 S10       30.22S
CLE-LAKEFRONT  LGT RAIN  45  16  31 S21       30.18F
CUY CO. ARPT   NOT AVBL
LORAIN-ELYRIA  RAIN      40  26  57 S13       30.18F
ASHTABULA      CLOUDY    41  11  29 S9        30.20F
AKRON-CANTON   CLOUDY    44  11  26 S9        30.21F
WOOSTER        LGT RAIN  43  19  38 S6        30.22S
MANSFIELD      LGT RAIN  44  32  62 S12       30.19S
YOUNGSTOWN     CLOUDY    41  10  28 SE9       30.22F
$$

OHZ042-051>053-060>062-070>072-077>081-240700-
  SOUTHWEST OHIO

CITY           SKY/WX    TMP DP  RH WIND       PRES   REMARKS
CINC-COVINGTON FAIR      51  34  52 S7        30.17F
CINC-LUNKEN    FAIR      44  39  82 CALM      30.19F
HAMILTON       FAIR      51  35  54 S3        30.17F
DAYTON         MOCLDY    49  33  54 SE10      30.15F
WRIGHT-PAT AFB MOCLDY    51  31  47 SE8       30.16F
DAYTON GENERAL FAIR      52  31  44 S7        30.16F
WILMINGTON     MOCLDY    49  33  54 SE3       30.19S
$$

OHZ036-037-039>041-045>050-054>059-063>069-073>076-082>088-240700-
  CENTRAL AND SOUTHEAST OHIO

CITY           SKY/WX    TMP DP  RH WIND       PRES   REMARKS
COLUMBUS       CLOUDY    51  23  33 SE8       30.20F
OSU AIRPORT    LGT RAIN  50  26  39 S9        30.19F
BOLTON FIELD   CLOUDY    47  29  51 S6        30.20F
RICKENBACK AFB CLOUDY    47  27  46 CALM      30.21S
NEWARK         MOCLDY    42  32  67 CALM      30.21F
MARION         LGT RAIN  44  33  65 SE14      30.17F
LANCASTER      MOCLDY    49  25  39 SE5       30.22F
ZANESVILLE     CLOUDY    47  20  34 SE6       30.22F
NEW PHILLY     CLOUDY    41  19  41 SE7       30.23F
$$



USA.gov is the U.S. government's official web portal to all federal, state and local government web resources and services.